User: anonymous   Login
Location: Unspecified
(35.6961°N, 0.0000°E)
Time: 08:41:39
(UTC+00:00)
Language:

UNISAT 6 - Orbit

View from above orbital plane
View from above orbital plane
View from above satellite
View from above satellite

Ground track
Ground track

The orbit data is extracted from the following two-line orbital elements,

1 40012U 14033C   19169.94732956 +.00000125 +00000-0 +25964-4 0  9997
2 40012 097.7577 036.5485 0059840 096.8129 263.9893 14.73976780268720
Epoch (UTC): 18 June 2019 22:44:09
Eccentricity: 0.0059840
inclination: 97.7577°
perigee height: 606 km
apogee height: 690 km
right ascension of ascending node: 36.5485°
argument of perigee: 96.8129°
revolutions per day: 14.73976780
mean anomaly at epoch: 263.9893°
orbit number at epoch: 26872

The dashed part of the orbit path shows where the satellite is in the earth's shadow,  

DLR